CAPE
476 1092 1686 1738 1613 1750 1827 1739 1747 1619 1792 1744 1723 1663 1769 1762 1748 1799 1597 1643 1794 1608 1322 1231 1094 1051 1062 1004 903 689 730 702 682 678 789 761 720 380 263 406 365 283 465
582 980 1825 1764 1683 1645 1589 1632 1481 1328 1803 1937 1829 1560 1730 1718 1739 1593 1548 1489 1532 1444 1275 1217 1203 1099 1066 810 671 736 816 693 781 636 422 337 505 663 355 509 641 269 268
734 1082 1431 1916 1696 1725 1534 1687 1535 1504 1665 1979 1804 1673 1768 1623 1394 1448 1614 1483 1323 1223 1100 1077 1077 1035 865 593 492 281 275 567 555 319 259 18 93 446 172 428 330 44 11
735 1040 1180 1877 2065 1903 1853 1774 1855 1619 1753 1846 1786 1636 1524 1316 1323 1430 1471 1315 1244 1067 955 923 854 768 632 410 256 110 180 451 201 234 26 22 16 76 20 15 3 18 9
805 1187 1383 1855 1993 1827 1737 1674 1584 1383 1475 1730 1705 1671 1501 1354 1365 1409 1416 1160 1234 1060 809 734 677 537 411 313 159 98 129 176 212 16 13 29 7 21 10 10 11 12 13
1108 1234 1444 1728 1751 1880 1851 1679 1540 1586 1657 1578 1472 1450 1209 1147 1132 1274 1124 1289 1361 1116 648 612 610 613 501 291 151 113 126 378 60 9 9 15 9 13 14 18 14 12 11
1151 1273 1477 1826 1987 1783 1550 1598 1661 1666 1572 1471 1208 1009 948 988 967 1053 1098 1263 1111 957 707 629 616 593 331 112 37 19 24 62 16 6 1 4 10 13 16 12 10 11 8
1258 1332 1186 1318 1580 1401 1397 1214 1264 1440 1463 1458 1426 1235 882 792 856 989 929 1051 646 546 506 617 590 400 151 38 0 0 0 6 0 0 0 1 18 9 13 11 6 4 5
1240 1158 1043 749 712 906 837 921 1053 1298 1181 1234 1145 1029 995 991 624 739 779 661 465 435 631 605 663 332 85 1 0 0 0 0 0 0 0 1 15 4 5 4 2 3 3
993 1065 749 615 560 536 459 541 623 681 716 858 780 626 584 687 812 788 686 647 389 215 588 697 505 184 24 0 0 0 0 0 0 0 0 2 3 0 0 1 2 5 8
884 774 596 520 607 382 490 322 435 392 275 104 54 116 165 260 351 322 254 401 388 185 42 84 101 42 0 0 0 0 0 0 0 0 0 19 4 1 1 2 3 3 2
695 687 517 406 684 525 237 435 404 194 100 8 2 59 116 116 105 39 4 18 75 7 0 0 0 0 3 0 0 0 0 0 0 0 0 16 4 3 2 2 2 3 3
500 505 770 454 491 455 426 802 259 99 61 36 34 48 38 0 3 0 0 0 0 0 0 0 0 0 0 0 0 0 0 0 0 0 0 0 2 4 4 2 2 3 3
446 363 732 341 487 381 606 761 317 65 32 16 13 15 24 26 14 5 4 3 1 0 0 0 0 0 0 0 0 0 0 0 0 0 0 0 0 0 3 4 2 1 2
781 563 688 741 537 383 415 493 271 62 52 13 3 1 4 12 12 3 2 1 0 0 0 0 0 0 0 0 0 0 0 0 0 0 0 0 0 0 0 0 0 2 4
723 643 676 678 648 529 549 318 177 42 49 30 18 1 4 11 9 4 3 2 0 0 0 0 0 0 0 0 0 0 0 0 0 0 0 0 0 0 0 0 0 0 0
862 562 597 833 714 358 405 196 156 94 48 28 12 7 6 12 7 7 8 6 1 0 0 0 0 0 0 0 0 0 0 0 0 0 0 0 0 0 0 0 0 0 0
467 518 692 951 700 470 695 173 122 152 51 27 14 10 9 9 6 9 13 6 1 0 0 0 0 0 0 0 0 0 0 0 0 0 0 0 0 0 0 0 0 0 0
465 536 480 759 519 577 440 221 97 156 38 20 20 23 12 10 5 13 20 7 0 0 0 0 0 0 0 0 0 0 0 0 0 0 0 0 0 0 0 0 0 0 0
375 411 566 820 481 538 634 453 208 226 81 14 16 17 18 15 12 21 24 6 0 0 0 0 0 0 0 0 0 0 0 0 0 0 0 0 0 0 0 0 0 0 0
325 325 307 345 653 544 589 386 207 51 28 34 31 15 14 23 17 22 19 0 0 0 0 0 0 0 0 0 0 0 0 0 0 0 0 0 0 0 0 0 0 0 0
387 573 542 561 517 351 437 204 25 28 25 37 42 31 33 18 17 16 9 0 0 0 0 0 0 0 0 0 0 0 0 0 0 0 0 0 0 0 0 0 0 0 0
448 510 325 326 349 273 197 66 20 18 12 20 21 40 40 28 8 4 6 0 0 0 0 0 0 0 0 0 0 0 0 0 0 0 0 0 0 0 0 0 0 0 0
444 563 451 355 290 211 195 4 21 22 21 26 26 33 34 36 7 4 8 0 0 0 0 0 0 0 0 0 0 0 0 0 0 0 0 0 0 0 0 0 0 0 0
413 645 642 328 221 177 201 21 18 31 25 35 23 27 29 23 10 0 0 0 0 0 0 0 0 0 0 0 0 0 0 0 0 0 0 0 0 0 0 0 0 0 0
534 725 750 383 178 218 210 93 54 69 36 16 25 14 15 8 13 1 0 0 0 0 0 0 0 0 0 0 0 0 0 0 0 0 0 0 0 0 0 0 0 0 0
CIN
-7 -1 -0 -0 -0 -0 -0 -0 -1 -3 -0 -0 -0 -1 -0 -0 -0 -0 -0 -0 -0 -0 -0 -0 -0 -0 -0 -0 -0 -0 -0 -0 -0 -1 -1 -0 -0 -0 -2 -1 -1 -2 -0
-7 -1 -0 -0 -0 -0 -2 -1 -5 -7 -0 -0 -0 -0 -0 -0 -0 -0 -0 -0 -0 -0 -0 -0 -0 -0 -0 -0 -0 -0 -0 -0 -3 -7 -9 -5 -1 -0 -0 -0 -0 -0 -3
-0 -0 -0 -0 -3 -2 -8 -3 -5 -2 -0 -1 -0 -0 -0 -0 -0 -0 -0 -0 -0 -0 -0 -0 -0 -0 -0 -0 -0 -4 -6 -5 -14 -18 -19 -0 -55 -0 -34 -3 -3 -91 -6
-1 -0 -0 -0 -0 -0 -0 -0 -0 -0 -1 -1 -1 -1 -0 -0 -0 -0 -0 -0 -0 -0 -0 -0 -0 -0 -0 -0 -0 -19 -8 -11 -26 -40 -24 -72 -55 -96 -0 -0 -0 -0 -0
-0 -0 -1 -1 -0 -0 -0 -0 -0 -1 -2 -2 -2 -3 -0 -0 -0 -0 -0 -0 -0 -0 -0 -0 -0 -0 -0 -0 -0 -22 -29 -41 -56 -29 -0 -44 -0 -0 -0 -0 -0 -0 -0
-0 -0 -2 -1 -0 -0 -0 -0 -0 -0 -2 -2 -2 -2 -2 -0 -0 -0 -0 -0 -0 -0 -0 -0 -0 -0 -0 -3 -24 -56 -69 -46 -138 -0 -2 -0 -1 -0 -0 -0 -0 -0 -0
-3 -0 -0 -0 -0 -0 -0 -0 -1 -1 -2 -2 -4 -1 -1 -0 -0 -0 -0 -0 -0 -0 -0 -0 -0 -1 -28 -98 -146 -173 -183 -179 -0 -0 -0 -0 -0 -0 -0 -0 -0 -0 -0
-1 -0 -0 -2 -0 -1 -2 -5 -7 -4 -2 -2 -2 -0 -4 -5 -0 -0 -0 -0 -0 -2 -5 -0 -3 -42 -112 -206 -8 -0 -0 -60 -0 -0 -0 -0 -0 -0 -0 -0 -0 -0 -0
-0 -0 -0 -0 -8 -14 -20 -14 -11 -4 -5 -2 -2 -2 -2 -1 -9 -0 -0 -0 -13 -23 -2 -6 -17 -70 -171 -18 -0 -0 -0 -0 -0 -0 -0 -0 -0 -0 -0 -0 -0 -0 -0
-0 -2 -0 -7 -13 -14 -16 -21 -21 -17 -18 -8 -11 -11 -23 -9 -1 -1 -2 -8 -45 -107 -21 -14 -45 -141 -237 -0 -0 -0 -0 -0 -0 -0 -0 -0 -0 -0 -0 -0 -0 -0 -0
-1 -5 -12 -25 -13 -37 -16 -39 -23 -39 -67 -147 -184 -175 -172 -114 -80 -106 -159 -83 -80 -168 -349 -264 -200 -275 -0 -0 -0 -0 -0 -0 -0 -0 -0 -0 -0 -0 -0 -0 -0 -0 -0
-23 -18 -42 -75 -15 -21 -89 -21 -24 -80 -126 -174 -154 -172 -166 -195 -229 -315 -122 -310 -327 -168 -131 -0 -0 -0 -59 -0 -0 -0 -0 -0 -0 -0 -0 -2 -0 -0 -0 -0 -0 -0 -0
-68 -67 -27 -72 -50 -53 -45 -2 -75 -147 -184 -215 -235 -227 -251 -25 -69 -0 -0 -0 -0 -0 -0 -0 -0 -0 -0 -0 -0 -0 -0 -0 -0 -0 -0 -0 -0 -0 -0 -0 -0 -0 -0
-90 -108 -24 -132 -70 -90 -31 -14 -71 -183 -230 -291 -317 -324 -320 -320 -340 -0 -0 -0 -0 -0 -0 -0 -0 -0 -0 -0 -0 -0 -0 -0 -0 -0 -0 -0 -0 -0 -0 -0 -0 -0 -0
-15 -53 -30 -21 -50 -82 -65 -59 -102 -208 -231 -326 -310 -0 -0 -409 -406 -1 -0 -0 -0 -0 -0 -0 -0 -0 -0 -0 -0 -0 -0 -0 -0 -0 -0 -0 -0 -0 -0 -0 -0 -0 -0
-14 -27 -22 -25 -24 -40 -36 -87 -142 -241 -238 -283 -362 -0 -0 -426 -440 -1 -0 -0 -0 -0 -0 -0 -0 -0 -0 -0 -0 -0 -0 -0 -0 -0 -0 -0 -0 -0 -0 -0 -0 -0 -0
-1 -38 -25 -3 -13 -76 -62 -132 -157 -184 -244 -279 -0 -1 -0 -18 -0 -0 -0 -0 -0 -0 -0 -0 -0 -0 -0 -0 -0 -0 -0 -0 -0 -0 -0 -0 -0 -0 -0 -0 -0 -0 -0
-74 -55 -6 -0 -7 -47 -18 -137 -173 -148 -221 -263 -0 -0 -0 -0 -1 -0 -0 -0 -0 -0 -0 -0 -0 -0 -0 -0 -0 -0 -0 -0 -0 -0 -0 -0 -0 -0 -0 -0 -0 -0 -0
-90 -44 -56 -8 -36 -31 -61 -121 -180 -151 -226 -79 -0 -1 -0 -0 -0 -0 -0 -0 -0 -0 -0 -0 -0 -0 -0 -0 -0 -0 -0 -0 -0 -0 -0 -0 -0 -0 -0 -0 -0 -0 -0
-132 -98 -24 -3 -48 -36 -28 -64 -145 -131 -181 -4 -0 -0 -0 -0 -1 -0 -0 -0 -0 -0 -0 -0 -0 -0 -0 -0 -0 -0 -0 -0 -0 -0 -0 -0 -0 -0 -0 -0 -0 -0 -0
-175 -151 -143 -110 -25 -43 -45 -86 -153 -243 -31 -37 -3 -0 -0 -0 -0 -0 -0 -0 -0 -0 -0 -0 -0 -0 -0 -0 -0 -0 -0 -0 -0 -0 -0 -0 -0 -0 -0 -0 -0 -0 -0
-155 -75 -68 -52 -61 -101 -73 -162 -307 -256 -36 -27 -6 -26 -12 -0 -0 -0 -0 -0 -0 -0 -0 -0 -0 -0 -0 -0 -0 -0 -0 -0 -0 -0 -0 -0 -0 -0 -0 -0 -0 -0 -0
-134 -103 -156 -145 -126 -150 -185 -267 -19 -38 -49 -41 -50 -34 -33 -0 -0 -0 -0 -0 -0 -0 -0 -0 -0 -0 -0 -0 -0 -0 -0 -0 -0 -0 -0 -0 -0 -0 -0 -0 -0 -0 -0
-131 -92 -116 -138 -152 -177 -194 -178 -169 -14 -14 -12 -26 -22 -46 -1 -1 -4 -5 -0 -0 -0 -0 -0 -0 -0 -0 -0 -0 -0 -0 -0 -0 -0 -0 -0 -0 -0 -0 -0 -0 -0 -0
-124 -82 -70 -135 -170 -190 -178 -328 -15 -3 -3 -1 -16 -28 -34 -11 -3 -0 -0 -0 -0 -0 -0 -0 -0 -0 -0 -0 -0 -0 -0 -0 -0 -0 -0 -0 -0 -0 -0 -0 -0 -0 -0
-78 -46 -38 -107 -193 -172 -170 -216 -254 -187 -63 -1 -1 -19 -41 -11 -17 -20 -0 -0 -0 -0 -0 -0 -0 -0 -0 -0 -0 -0 -0 -0 -0 -0 -0 -0 -0 -0 -0 -0 -0 -0 -0
Wind_Speed
14 17 20 30 26 22 27 18 22 24 25 25 25 25 22 21 21 20 25 21 12 14 23 36 34 25 23 23 22 22 21 22 23 22 19 20 20 21 18 12 9 7 10
19 20 17 22 21 17 19 21 22 23 24 27 26 23 22 22 23 23 23 17 16 15 17 24 25 25 24 23 22 20 21 18 17 19 20 20 16 14 13 11 10 6 10
19 19 14 15 13 15 15 14 17 16 15 19 20 23 25 24 22 22 23 17 14 14 15 21 26 25 25 22 20 19 17 14 13 12 11 nan nan 9 10 8 8 nan nan
8 5 5 4 7 9 12 13 13 14 17 19 20 24 28 26 22 25 23 19 17 16 15 14 22 30 28 17 18 18 15 10 5 8 nan nan nan nan nan nan nan nan nan
6 10 5 3 2 5 6 8 9 11 17 21 21 22 24 24 27 26 23 22 19 18 16 17 14 13 18 18 16 nan 11 11 7 nan nan nan nan nan nan nan nan nan nan
7 5 6 2 2 3 5 6 7 10 14 16 14 18 23 24 28 30 24 21 19 19 18 19 14 11 13 11 11 14 17 19 nan nan nan nan nan nan nan nan nan nan nan
5 3 5 3 2 4 4 4 2 3 5 5 8 13 16 22 18 18 22 22 20 17 16 16 14 13 11 10 nan nan nan nan nan nan nan nan nan nan nan nan nan nan nan
4 5 5 4 2 3 4 4 5 6 7 8 9 9 11 13 16 14 11 10 12 14 15 15 16 14 13 nan nan nan nan nan nan nan nan nan nan nan nan nan nan nan nan
2 3 7 6 3 3 4 6 6 8 10 7 10 7 10 13 15 13 9 8 10 11 14 10 12 13 nan nan nan nan nan nan nan nan nan nan nan nan nan nan nan nan nan
1 3 4 4 3 7 7 5 7 9 13 14 12 10 8 6 4 18 8 8 9 11 10 9 11 12 nan nan nan nan nan nan nan nan nan nan nan nan nan nan nan nan nan
1 3 2 2 3 6 6 6 7 10 10 9 nan 6 9 8 9 10 12 11 8 10 nan nan 11 nan nan nan nan nan nan nan nan nan nan nan nan nan nan nan nan nan nan
5 5 2 2 2 3 5 9 6 5 7 nan nan nan 10 8 10 nan nan nan nan nan nan nan nan nan nan nan nan nan nan nan nan nan nan nan nan nan nan nan nan nan nan
2 1 5 5 2 1 5 6 8 nan nan nan nan nan nan nan nan nan nan nan nan nan nan nan nan nan nan nan nan nan nan nan nan nan nan nan nan nan nan nan nan nan nan
2 2 6 6 4 1 3 4 5 nan nan nan nan nan nan nan nan nan nan nan nan nan nan nan nan nan nan nan nan nan nan nan nan nan nan nan nan nan nan nan nan nan nan
3 5 5 6 8 5 3 7 6 nan nan nan nan nan nan nan nan nan nan nan nan nan nan nan nan nan nan nan nan nan nan nan nan nan nan nan nan nan nan nan nan nan nan
5 7 6 4 8 8 6 3 2 nan nan nan nan nan nan nan nan nan nan nan nan nan nan nan nan nan nan nan nan nan nan nan nan nan nan nan nan nan nan nan nan nan nan
3 10 6 6 8 8 6 6 7 nan nan nan nan nan nan nan nan nan nan nan nan nan nan nan nan nan nan nan nan nan nan nan nan nan nan nan nan nan nan nan nan nan nan
4 8 8 6 8 8 8 9 9 9 nan nan nan nan nan nan nan nan nan nan nan nan nan nan nan nan nan nan nan nan nan nan nan nan nan nan nan nan nan nan nan nan nan
8 8 8 7 6 5 6 9 nan 12 nan nan nan nan nan nan nan nan nan nan nan nan nan nan nan nan nan nan nan nan nan nan nan nan nan nan nan nan nan nan nan nan nan
14 10 8 7 1 5 5 6 11 15 nan nan nan nan nan nan nan nan nan nan nan nan nan nan nan nan nan nan nan nan nan nan nan nan nan nan nan nan nan nan nan nan nan
15 11 9 7 4 4 7 7 10 nan nan nan nan nan nan nan nan nan nan nan nan nan nan nan nan nan nan nan nan nan nan nan nan nan nan nan nan nan nan nan nan nan nan
14 13 10 8 7 6 9 10 nan nan nan nan nan nan nan nan nan nan nan nan nan nan nan nan nan nan nan nan nan nan nan nan nan nan nan nan nan nan nan nan nan nan nan
16 16 12 10 9 10 13 nan nan nan nan nan nan nan nan nan nan nan nan nan nan nan nan nan nan nan nan nan nan nan nan nan nan nan nan nan nan nan nan nan nan nan nan
18 18 14 13 12 13 17 nan nan nan nan nan nan nan nan nan nan nan nan nan nan nan nan nan nan nan nan nan nan nan nan nan nan nan nan nan nan nan nan nan nan nan nan
20 19 16 15 14 16 17 nan nan nan nan nan nan nan nan nan nan nan nan nan nan nan nan nan nan nan nan nan nan nan nan nan nan nan nan nan nan nan nan nan nan nan nan
26 24 19 17 16 17 18 nan nan nan nan nan nan nan nan nan nan nan nan nan nan nan nan nan nan nan nan nan nan nan nan nan nan nan nan nan nan nan nan nan nan nan nan
Wind_Direction
250 248 234 246 229 219 234 238 241 234 237 234 232 235 240 241 242 237 240 235 246 247 251 243 226 210 223 225 229 236 238 247 257 259 261 269 274 269 263 256 255 263 262
258 260 248 252 266 235 248 245 243 242 225 220 216 228 234 242 238 238 246 254 260 252 248 224 214 213 224 228 234 240 242 255 266 286 288 275 258 251 236 221 223 236 240
249 249 252 247 252 254 254 255 240 247 258 237 239 239 240 239 232 230 239 241 237 219 232 225 212 215 223 233 237 239 244 255 287 304 298 nan nan 227 237 230 239 nan nan
221 193 211 223 242 242 243 248 253 252 246 243 235 233 239 240 236 234 238 239 234 226 218 230 229 227 224 238 239 245 246 246 250 199 nan nan nan nan nan nan nan nan nan
129 126 131 118 195 214 218 235 243 247 242 241 232 224 234 237 234 232 235 234 228 222 219 215 223 235 238 238 240 nan 183 145 199 nan nan nan nan nan nan nan nan nan nan
158 130 101 142 131 171 202 227 245 243 238 239 237 235 233 231 234 235 222 223 216 217 230 230 232 242 238 214 188 165 156 141 nan nan nan nan nan nan nan nan nan nan nan
120 116 100 113 146 187 185 191 185 202 211 218 238 251 251 244 225 215 223 218 216 219 222 231 234 228 221 211 nan nan nan nan nan nan nan nan nan nan nan nan nan nan nan
128 90 74 92 122 156 166 166 155 158 175 208 224 236 247 242 208 209 204 202 217 224 211 222 218 216 215 nan nan nan nan nan nan nan nan nan nan nan nan nan nan nan nan
32 73 74 63 76 151 148 153 149 165 190 185 179 193 193 221 198 208 196 229 198 196 200 204 219 214 nan nan nan nan nan nan nan nan nan nan nan nan nan nan nan nan nan
166 99 82 61 105 98 104 126 166 171 192 189 192 184 199 199 171 187 188 186 194 195 201 213 222 218 nan nan nan nan nan nan nan nan nan nan nan nan nan nan nan nan nan
152 149 180 128 87 61 81 106 164 183 184 175 nan 114 80 132 150 166 172 171 185 192 nan nan 211 nan nan nan nan nan nan nan nan nan nan nan nan nan nan nan nan nan nan
9 351 22 278 55 43 74 52 76 97 106 nan nan nan 129 132 150 nan nan nan nan nan nan nan nan nan nan nan nan nan nan nan nan nan nan nan nan nan nan nan nan nan nan
348 177 241 274 283 338 75 115 101 nan nan nan nan nan nan nan nan nan nan nan nan nan nan nan nan nan nan nan nan nan nan nan nan nan nan nan nan nan nan nan nan nan nan
326 255 263 286 288 265 160 136 104 nan nan nan nan nan nan nan nan nan nan nan nan nan nan nan nan nan nan nan nan nan nan nan nan nan nan nan nan nan nan nan nan nan nan
295 287 258 269 279 272 139 178 171 nan nan nan nan nan nan nan nan nan nan nan nan nan nan nan nan nan nan nan nan nan nan nan nan nan nan nan nan nan nan nan nan nan nan
299 307 284 284 266 267 243 268 213 nan nan nan nan nan nan nan nan nan nan nan nan nan nan nan nan nan nan nan nan nan nan nan nan nan nan nan nan nan nan nan nan nan nan
276 286 292 273 264 268 262 262 246 nan nan nan nan nan nan nan nan nan nan nan nan nan nan nan nan nan nan nan nan nan nan nan nan nan nan nan nan nan nan nan nan nan nan
241 293 277 243 264 270 241 245 240 244 nan nan nan nan nan nan nan nan nan nan nan nan nan nan nan nan nan nan nan nan nan nan nan nan nan nan nan nan nan nan nan nan nan
296 276 277 265 287 285 278 246 nan 257 nan nan nan nan nan nan nan nan nan nan nan nan nan nan nan nan nan nan nan nan nan nan nan nan nan nan nan nan nan nan nan nan nan
291 295 286 266 346 323 272 268 252 255 nan nan nan nan nan nan nan nan nan nan nan nan nan nan nan nan nan nan nan nan nan nan nan nan nan nan nan nan nan nan nan nan nan
275 289 293 289 323 272 261 279 276 nan nan nan nan nan nan nan nan nan nan nan nan nan nan nan nan nan nan nan nan nan nan nan nan nan nan nan nan nan nan nan nan nan nan
285 281 285 289 283 280 266 276 nan nan nan nan nan nan nan nan nan nan nan nan nan nan nan nan nan nan nan nan nan nan nan nan nan nan nan nan nan nan nan nan nan nan nan
277 281 278 273 270 276 281 nan nan nan nan nan nan nan nan nan nan nan nan nan nan nan nan nan nan nan nan nan nan nan nan nan nan nan nan nan nan nan nan nan nan nan nan
268 270 270 265 270 276 287 nan nan nan nan nan nan nan nan nan nan nan nan nan nan nan nan nan nan nan nan nan nan nan nan nan nan nan nan nan nan nan nan nan nan nan nan
260 264 267 268 270 279 282 nan nan nan nan nan nan nan nan nan nan nan nan nan nan nan nan nan nan nan nan nan nan nan nan nan nan nan nan nan nan nan nan nan nan nan nan
257 266 278 287 284 286 292 nan nan nan nan nan nan nan nan nan nan nan nan nan nan nan nan nan nan nan nan nan nan nan nan nan nan nan nan nan nan nan nan nan nan nan nan